Fort Myers, FL

8:53 PM EST on January 19, 2017 (GMT -0500)
Page

Weather History for KFMY - November, 2013

Change the Weather History Date:

Sunday, November 24, 2013

  Actual Average Record
Temperature  
Mean Temperature 73 °F 70 °F  
Max Temperature 80 °F 80 °F 88 °F (1992)
Min Temperature 65 °F 60 °F 36 °F (1956)
Degree Days  
Heating Degree Days 0 1  
Month to date heating degree days 0 9  
Since 1 July heating degree days 0 11  
Cooling Degree Days 8 6  
Month to date cooling degree days 226 182  
Year to date cooling degree days 3849 3830  
Growing Degree Days 22 (Base 50)    
Moisture  
Dew Point 63 °F    
Average Humidity 77    
Maximum Humidity 93    
Minimum Humidity 60    
Precipitation  
Precipitation 0.00 in 0.04 in 0.69 in (1998)
Month to date precipitation 0.96 1.67  
Year to date precipitation 52.82 53.93  
Sea Level Pressure  
Sea Level Pressure 30.10 in    
Wind  
Wind Speed 10 mph (NE)    
Max Wind Speed 22 mph    
Max Gust Speed 28 mph    
Visibility 10 miles    
Events      
T = Trace of Precipitation, MM = Missing Value Source: NWS Daily Summary

Daily Weather History Graph

Daily Weather History Graph

Search for Another Location

Airport or City:

Trip Planner

Search our weather history database for the weather conditions in past years. The results will help you decide how hot, cold, wet, or windy it might be!

Date:

Astronomy

Nov. 24, 2013 Rise Set
Actual Time 6:53 AM EST 5:34 PM EST
Civil Twilight 6:28 AM EST 5:59 PM EST
Nautical Twilight 6:00 AM EST 6:27 PM EST
Astronomical Twilight 5:32 AM EST 6:55 PM EST
Moon 11:41 PM EST (11/24) 11:56 AM EST (11/24)
Length of Visible Light 11h 30m
Length of Day
10h 41m
Waning Gibbous, 61% of the Moon is Illuminated
Nov 24
Waning Gibbous
Nov 25
Last Quarter
Dec 2
New
Dec 9
First Quarter
Dec 17
Full

Hourly Weather History & Observations

Time (EST) Temp. Dew Point Humidity Pressure Visibility Wind Dir Wind Speed Gust Speed Precip Events Conditions
12:53 AM 70.0 °F 64.9 °F 84% 30.04 in 10.0 mi NNE 4.6 mph - N/A   Partly Cloudy
1:53 AM 70.0 °F 66.0 °F 87% 30.03 in 10.0 mi Calm Calm - N/A   Mostly Cloudy
2:53 AM 68.0 °F 64.9 °F 90% 30.02 in 10.0 mi NNE 4.6 mph - N/A   Clear
3:53 AM 68.0 °F 64.9 °F 90% 30.02 in 10.0 mi NNE 5.8 mph - N/A   Partly Cloudy
4:53 AM 66.9 °F 64.9 °F 93% 30.03 in 10.0 mi NNE 4.6 mph - N/A   Clear
5:53 AM 66.9 °F 64.0 °F 90% 30.04 in 10.0 mi NE 4.6 mph - N/A   Clear
6:53 AM 66.9 °F 64.0 °F 90% 30.06 in 10.0 mi NE 4.6 mph - N/A   Clear
7:53 AM 69.1 °F 64.9 °F 87% 30.07 in 10.0 mi NNE 4.6 mph - N/A   Clear
8:53 AM 72.0 °F 64.9 °F 78% 30.10 in 10.0 mi NE 10.4 mph - N/A   Clear
9:42 AM 73.4 °F 66.2 °F 78% 30.10 in 10.0 mi NE 12.7 mph - N/A   Mostly Cloudy
9:53 AM 73.9 °F 66.0 °F 76% 30.11 in 10.0 mi NE 12.7 mph - N/A   Mostly Cloudy
10:12 AM 73.4 °F 66.2 °F 78% 30.11 in 10.0 mi NE 9.2 mph - N/A   Overcast
10:53 AM 73.9 °F 66.0 °F 76% 30.11 in 10.0 mi ENE 11.5 mph - N/A   Overcast
11:44 AM 73.4 °F 66.2 °F 78% 30.10 in 10.0 mi NE 12.7 mph - N/A   Overcast
11:53 AM 73.9 °F 64.9 °F 73% 30.10 in 10.0 mi ENE 10.4 mph - N/A   Overcast
12:53 PM 75.9 °F 64.9 °F 69% 30.08 in 10.0 mi NE 11.5 mph - N/A   Overcast
1:53 PM 79.0 °F 64.0 °F 60% 30.07 in 10.0 mi ENE 10.4 mph - N/A   Mostly Cloudy
2:01 PM 78.8 °F 64.4 °F 61% 30.06 in 10.0 mi NNE 12.7 mph - N/A   Mostly Cloudy
2:53 PM 78.1 °F 64.0 °F 62% 30.06 in 10.0 mi NE 11.5 mph - N/A   Mostly Cloudy
3:53 PM 77.0 °F 63.0 °F 62% 30.08 in 10.0 mi ENE 13.8 mph 21.9 mph N/A   Partly Cloudy
4:53 PM 75.9 °F 62.1 °F 62% 30.09 in 10.0 mi NE 17.3 mph 21.9 mph N/A   Mostly Cloudy
5:53 PM 71.1 °F 61.0 °F 70% 30.12 in 10.0 mi NE 13.8 mph 26.5 mph N/A   Overcast
6:26 PM 69.8 °F 60.8 °F 73% 30.12 in 10.0 mi NE 16.1 mph 26.5 mph N/A   Overcast
6:53 PM 69.1 °F 60.1 °F 73% 30.14 in 10.0 mi NE 18.4 mph 25.3 mph N/A   Overcast
7:53 PM 68.0 °F 60.1 °F 76% 30.17 in 10.0 mi ENE 12.7 mph 19.6 mph N/A   Overcast
8:17 PM 68.0 °F 60.8 °F 78% 30.16 in 10.0 mi ENE 12.7 mph - N/A   Overcast
8:53 PM 66.0 °F 60.1 °F 81% 30.16 in 10.0 mi ENE 11.5 mph - N/A   Partly Cloudy
9:53 PM 64.9 °F 60.1 °F 84% 30.17 in 10.0 mi NE 9.2 mph - N/A   Clear
10:53 PM 64.9 °F 60.1 °F 84% 30.17 in 10.0 mi NE 11.5 mph - N/A   Clear
11:53 PM 64.9 °F 59.0 °F 81% 30.17 in 10.0 mi NE 10.4 mph - N/A   Clear